AFL370 URMO-URKK

Flight info

Callsign AFL370
Flight time 0h 48m
Altitude 30000
Route TAFIK5K TAFIK G914 RESLO B491 RANIS RANIS6Y
Aircraft B738/M-SDE2E3FGHIRWXY/LB1

Departure

Time 2026-05-06 13:43
Airport Vladikavkaz Beslan International Airport (URMO)

Arrival

Time 2026-05-06 14:32
Airport Krasnodar Pashkovsky International Airport (URKK)
Time Latitude Longitude Altitude Speed Heading
2026-05-06 13:24 43.20252 44.60832 1681 ft 0 kts 11°
2026-05-06 13:40 43.20253 44.60832 1681 ft 1 kts 12°
2026-05-06 13:40 43.20270 44.60857 1668 ft 5 kts 83°
2026-05-06 13:40 43.20235 44.60880 1684 ft 9 kts 179°
2026-05-06 13:41 43.20190 44.60929 1687 ft 9 kts 105°
2026-05-06 13:41 43.20180 44.61012 1681 ft 9 kts 97°
2026-05-06 13:41 43.20167 44.61092 1684 ft 9 kts 103°
2026-05-06 13:41 43.20154 44.61173 1684 ft 9 kts 100°
2026-05-06 13:42 43.20193 44.61244 1684 ft 12 kts 21°
2026-05-06 13:42 43.20287 44.61262 1686 ft 16 kts
2026-05-06 13:42 43.20412 44.61272 1678 ft 20 kts 333°
2026-05-06 13:42 43.20436 44.61230 1682 ft 1 kts 281°
2026-05-06 13:43 43.20480 44.60922 1678 ft 70 kts 283°
2026-05-06 13:43 43.20627 44.59959 1673 ft 134 kts 281°
2026-05-06 13:43 43.20839 44.58493 1809 ft 175 kts 282°
2026-05-06 13:43 43.21069 44.56790 2436 ft 189 kts 281°
2026-05-06 13:44 43.21318 44.55146 3678 ft 166 kts 281°
2026-05-06 13:44 43.21560 44.53564 4404 ft 180 kts 282°
2026-05-06 13:44 43.21834 44.51744 4660 ft 208 kts 282°
2026-05-06 13:44 43.22143 44.49689 4898 ft 231 kts 282°
2026-05-06 13:45 43.22471 44.47503 5467 ft 237 kts 283°
2026-05-06 13:45 43.23833 44.43144 6545 ft 262 kts 298°
2026-05-06 13:45 43.24678 44.40948 7326 ft 265 kts 298°
2026-05-06 13:46 43.25540 44.38702 8154 ft 267 kts 298°
2026-05-06 13:46 43.26405 44.36425 9017 ft 270 kts 297°
2026-05-06 13:46 43.27272 44.34124 9916 ft 273 kts 297°
2026-05-06 13:46 43.28148 44.31777 10539 ft 284 kts 297°
2026-05-06 13:47 43.29087 44.29247 10724 ft 310 kts 297°
2026-05-06 13:47 43.30099 44.26511 10903 ft 333 kts 297°
2026-05-06 13:47 43.31176 44.23584 11059 ft 354 kts 297°
2026-05-06 13:47 43.32310 44.20497 11421 ft 367 kts 297°
2026-05-06 13:48 43.33467 44.17340 12026 ft 373 kts 296°
2026-05-06 13:48 43.34637 44.14142 12704 ft 376 kts 296°
2026-05-06 13:48 43.35815 44.10920 13363 ft 380 kts 296°
2026-05-06 13:48 43.37007 44.07655 13961 ft 385 kts 296°
2026-05-06 13:49 43.38193 44.04399 14519 ft 389 kts 296°
2026-05-06 13:49 43.39409 44.01061 15104 ft 392 kts 296°
2026-05-06 13:49 43.40637 43.97687 15662 ft 396 kts 296°
2026-05-06 13:49 43.41872 43.94278 16215 ft 400 kts 296°
2026-05-06 13:50 43.43038 43.90784 16761 ft 404 kts 293°
2026-05-06 13:50 43.44154 43.87213 17313 ft 408 kts 292°
2026-05-06 13:50 43.45263 43.83607 17839 ft 412 kts 292°
2026-05-06 13:50 43.46389 43.79960 18346 ft 415 kts 293°
2026-05-06 13:51 43.47531 43.76294 18830 ft 418 kts 293°
2026-05-06 13:51 43.48686 43.72608 19322 ft 420 kts 293°
2026-05-06 13:51 43.49850 43.68901 19785 ft 423 kts 293°
2026-05-06 13:51 43.51006 43.65222 20245 ft 426 kts 293°
2026-05-06 13:52 43.52339 43.61566 20693 ft 429 kts 299°
2026-05-06 13:52 43.53866 43.58026 21149 ft 431 kts 301°
2026-05-06 13:52 43.55445 43.54494 21558 ft 434 kts 301°
2026-05-06 13:52 43.57037 43.50942 21955 ft 437 kts 301°
2026-05-06 13:53 43.58630 43.47354 22379 ft 439 kts 301°
2026-05-06 13:53 43.60216 43.43742 22788 ft 442 kts 301°
2026-05-06 13:53 43.61804 43.40093 23200 ft 444 kts 300°
2026-05-06 13:53 43.63394 43.36422 23573 ft 447 kts 300°
2026-05-06 13:54 43.64990 43.32723 23917 ft 449 kts 300°
2026-05-06 13:54 43.66568 43.29062 24251 ft 451 kts 300°
2026-05-06 13:54 43.68178 43.25324 24558 ft 453 kts 300°
2026-05-06 13:54 43.69795 43.21567 24831 ft 457 kts 300°
2026-05-06 13:55 43.71420 43.17787 25121 ft 459 kts 300°
2026-05-06 13:55 43.73052 43.13986 25412 ft 461 kts 300°
2026-05-06 13:55 43.74709 43.10181 25711 ft 463 kts 301°
2026-05-06 13:55 43.76386 43.06377 26003 ft 465 kts 301°
2026-05-06 13:56 43.78079 43.02546 26265 ft 467 kts 301°
2026-05-06 13:56 43.79774 42.98703 26547 ft 469 kts 301°
2026-05-06 13:56 43.81469 42.94848 26912 ft 468 kts 301°
2026-05-06 13:56 43.82586 42.92299 27186 ft 468 kts 301°
2026-05-06 13:57 43.84270 42.88450 27608 ft 466 kts 301°
2026-05-06 13:57 43.85948 42.84608 27958 ft 466 kts 301°
2026-05-06 13:57 43.88171 42.79512 28421 ft 467 kts 301°
2026-05-06 13:57 43.89815 42.75642 28792 ft 466 kts 299°
2026-05-06 13:58 43.91380 42.71699 29160 ft 466 kts 298°
2026-05-06 13:58 43.92925 42.67753 29536 ft 466 kts 298°
2026-05-06 13:58 43.93942 42.65133 29770 ft 465 kts 296°
2026-05-06 13:58 43.95218 42.61018 30066 ft 465 kts 288°
2026-05-06 13:59 43.96693 42.52273 30052 ft 465 kts 281°
2026-05-06 13:59 43.97926 42.43483 30053 ft 463 kts 281°
2026-05-06 14:00 43.99189 42.34726 30052 ft 462 kts 281°
2026-05-06 14:00 44.00482 42.25990 30052 ft 462 kts 281°
2026-05-06 14:01 44.01781 42.17247 30057 ft 463 kts 281°
2026-05-06 14:01 44.03076 42.08480 30058 ft 464 kts 281°
2026-05-06 14:02 44.04357 41.99747 30057 ft 465 kts 281°
2026-05-06 14:02 44.05643 41.90924 30060 ft 466 kts 281°
2026-05-06 14:03 44.06925 41.82072 30050 ft 468 kts 281°
2026-05-06 14:03 44.08205 41.73192 30058 ft 469 kts 281°
2026-05-06 14:04 44.09480 41.64292 30053 ft 469 kts 282°
2026-05-06 14:04 44.10741 41.55442 30065 ft 470 kts 282°
2026-05-06 14:05 44.12080 41.46552 30050 ft 469 kts 287°
2026-05-06 14:05 44.14213 41.37993 30053 ft 468 kts 291°
2026-05-06 14:06 44.16469 41.29495 30057 ft 467 kts 291°
2026-05-06 14:06 44.18663 41.20974 30060 ft 467 kts 290°
2026-05-06 14:07 44.20815 41.12442 30065 ft 467 kts 290°
2026-05-06 14:07 44.22959 41.03900 30062 ft 467 kts 290°
2026-05-06 14:08 44.25086 40.95411 30064 ft 466 kts 290°
2026-05-06 14:08 44.27252 40.86887 30060 ft 466 kts 290°
2026-05-06 14:09 44.29444 40.78363 30060 ft 467 kts 290°
2026-05-06 14:09 44.31629 40.69824 30062 ft 468 kts 290°
2026-05-06 14:10 44.33808 40.61254 30060 ft 469 kts 290°
2026-05-06 14:10 44.35983 40.52660 30056 ft 470 kts 290°
2026-05-06 14:11 44.38142 40.44099 29964 ft 472 kts 290°
2026-05-06 14:11 44.39241 40.39733 29143 ft 478 kts 290°
2026-05-06 14:11 44.40336 40.35372 28370 ft 474 kts 290°
2026-05-06 14:12 44.41458 40.31056 27514 ft 472 kts 294°
2026-05-06 14:12 44.43168 40.27167 26679 ft 469 kts 312°
2026-05-06 14:12 44.45468 40.23977 25869 ft 465 kts 319°
2026-05-06 14:12 44.47877 40.20952 25093 ft 464 kts 319°
2026-05-06 14:13 44.50271 40.17970 24456 ft 458 kts 319°
2026-05-06 14:13 44.52626 40.14989 23809 ft 454 kts 318°
2026-05-06 14:13 44.54908 40.12044 23087 ft 450 kts 318°
2026-05-06 14:13 44.57186 40.09074 22395 ft 445 kts 318°
2026-05-06 14:14 44.59432 40.06136 21758 ft 439 kts 317°
2026-05-06 14:14 44.61648 40.03238 21173 ft 432 kts 317°
2026-05-06 14:14 44.63837 40.00372 20535 ft 428 kts 318°
2026-05-06 14:14 44.66004 39.97536 19909 ft 424 kts 317°
2026-05-06 14:15 44.68150 39.94724 19289 ft 420 kts 317°
2026-05-06 14:15 44.70278 39.91931 18678 ft 417 kts 317°
2026-05-06 14:15 44.72391 39.89155 18028 ft 414 kts 317°
2026-05-06 14:15 44.74487 39.86398 17342 ft 410 kts 317°
2026-05-06 14:16 44.76559 39.83670 16721 ft 406 kts 317°
2026-05-06 14:16 44.78583 39.81003 16109 ft 402 kts 317°
2026-05-06 14:16 44.80615 39.78323 15516 ft 399 kts 317°
2026-05-06 14:16 44.82629 39.75663 14901 ft 396 kts 317°
2026-05-06 14:17 44.84629 39.73019 14313 ft 393 kts 317°
2026-05-06 14:17 44.86614 39.70392 13702 ft 390 kts 317°
2026-05-06 14:17 44.88586 39.67779 13051 ft 388 kts 317°
2026-05-06 14:17 44.90547 39.65181 12434 ft 385 kts 317°
2026-05-06 14:18 44.92490 39.62604 11827 ft 382 kts 317°
2026-05-06 14:18 44.94416 39.60043 11318 ft 378 kts 316°
2026-05-06 14:18 44.96007 39.57219 11172 ft 363 kts 298°
2026-05-06 14:18 44.96838 39.53987 11040 ft 349 kts 283°
2026-05-06 14:19 44.97326 39.50689 10905 ft 337 kts 281°
2026-05-06 14:19 44.97757 39.47491 10768 ft 327 kts 281°
2026-05-06 14:19 44.98172 39.44387 10630 ft 317 kts 281°
2026-05-06 14:19 44.98333 39.43198 10579 ft 313 kts 281°
2026-05-06 14:20 44.98480 39.42117 10535 ft 309 kts 281°
2026-05-06 14:20 44.98666 39.40765 10475 ft 305 kts 281°
2026-05-06 14:20 44.99069 39.37867 10351 ft 296 kts 281°
2026-05-06 14:20 44.99464 39.35055 10234 ft 288 kts 281°
2026-05-06 14:21 44.99850 39.32322 10114 ft 280 kts 281°
2026-05-06 14:21 45.00227 39.29656 9904 ft 276 kts 281°
2026-05-06 14:21 45.00597 39.27045 9627 ft 274 kts 281°
2026-05-06 14:21 45.00969 39.24416 9344 ft 272 kts 281°
2026-05-06 14:22 45.01337 39.21808 9081 ft 270 kts 281°
2026-05-06 14:22 45.01702 39.19217 8805 ft 268 kts 281°
2026-05-06 14:22 45.02061 39.16636 8538 ft 267 kts 279°
2026-05-06 14:22 45.02201 39.14033 8263 ft 265 kts 269°
2026-05-06 14:23 45.02177 39.11444 8006 ft 263 kts 268°
2026-05-06 14:23 45.02133 39.08868 7737 ft 261 kts 268°
2026-05-06 14:23 45.02098 39.06310 7470 ft 260 kts 269°
2026-05-06 14:23 45.02076 39.03761 7206 ft 259 kts 269°
2026-05-06 14:24 45.02061 39.01254 6940 ft 258 kts 269°
2026-05-06 14:24 45.02050 38.98698 6667 ft 256 kts 269°
2026-05-06 14:24 45.02040 38.96216 6400 ft 255 kts 269°
2026-05-06 14:24 45.02025 38.93713 6120 ft 254 kts 266°
2026-05-06 14:25 45.01558 38.91335 5817 ft 253 kts 239°
2026-05-06 14:25 45.00344 38.89558 5510 ft 255 kts 213°
2026-05-06 14:25 44.98705 38.88609 5236 ft 256 kts 196°
2026-05-06 14:25 44.96974 38.88048 4966 ft 256 kts 193°
2026-05-06 14:26 44.95231 38.87533 4673 ft 255 kts 193°
2026-05-06 14:26 44.93489 38.87044 4349 ft 257 kts 186°
2026-05-06 14:26 44.91736 38.87418 4108 ft 257 kts 156°
2026-05-06 14:26 44.90365 38.88935 3990 ft 251 kts 127°
2026-05-06 14:27 44.89713 38.91130 3827 ft 244 kts 96°
2026-05-06 14:27 44.89870 38.93419 3769 ft 230 kts 70°
2026-05-06 14:27 44.90593 38.95356 3663 ft 218 kts 53°
2026-05-06 14:27 44.91484 38.96999 3572 ft 204 kts 50°
2026-05-06 14:28 44.92389 38.98606 3039 ft 214 kts 50°
2026-05-06 14:28 44.93305 39.00253 2697 ft 212 kts 51°
2026-05-06 14:28 44.94195 39.01855 2501 ft 199 kts 50°
2026-05-06 14:28 44.95018 39.03337 2314 ft 187 kts 51°
2026-05-06 14:29 44.95801 39.04774 2125 ft 184 kts 51°
2026-05-06 14:29 44.96560 39.06175 1908 ft 180 kts 51°
2026-05-06 14:29 44.97313 39.07562 1720 ft 175 kts 51°
2026-05-06 14:29 44.98038 39.08902 1481 ft 167 kts 51°
2026-05-06 14:30 44.98731 39.10176 1320 ft 161 kts 51°
2026-05-06 14:30 44.99428 39.11460 1083 ft 164 kts 50°
2026-05-06 14:30 45.00116 39.12725 863 ft 160 kts 52°
2026-05-06 14:30 45.00787 39.13963 686 ft 157 kts 53°
2026-05-06 14:31 45.01462 39.15182 504 ft 158 kts 53°
2026-05-06 14:31 45.02136 39.16414 298 ft 158 kts 54°
2026-05-06 14:31 45.02796 39.17656 116 ft 155 kts 54°
2026-05-06 14:31 45.03369 39.18701 114 ft 105 kts 49°
2026-05-06 14:32 45.03729 39.19379 115 ft 71 kts 52°
2026-05-06 14:32 45.03932 39.19754 117 ft 14 kts 52°
2026-05-06 14:32 45.03973 39.19829 118 ft 0 kts 52°